Weather History for Reno, NV

Change the Weather History Date:

Friday, September 13, 2013

  Actual Average Record
Temperature  
Mean Temperature 72 °F 66 °F  
Max Temperature 87 °F 83 °F 96 °F (1937)
Min Temperature 57 °F 49 °F 29 °F (1972)
Degree Days  
Heating Degree Days 0 2  
Month to date heating degree days 0 17  
Since 1 July heating degree days 0 27  
Cooling Degree Days 7 3  
Month to date cooling degree days 111 55  
Year to date cooling degree days 1147 801  
Growing Degree Days 22 (Base 50)    
Moisture  
Dew Point 48 °F    
Average Humidity 47    
Maximum Humidity 72    
Minimum Humidity 21    
Precipitation  
Precipitation T in 0.02 in 0.97 in (1918)
Month to date precipitation T 0.11  
Year to date precipitation 3.04 4.80  
Snow  
Snow 0.00 in 0.00 in 0.00 in ()
Month to date snowfall 0.0 0.0  
Since 1 July snowfall T 0.0  
Since 1 September snowfall 0.0 0.0  
Snow Depth 0.00 in    
Sea Level Pressure  
Sea Level Pressure 29.87 in    
Wind  
Wind Speed 3 mph (WNW)    
Max Wind Speed 25 mph    
Max Gust Speed 31 mph    
Visibility 10 miles    
Events Rain , Thunderstorm    
T = Trace of Precipitation, MM = Missing Value Source: NWS Daily Summary

Daily Weather History Graph

Daily Weather History Graph

Search for Another Location

Airport:

Trip Planner

Search our weather history database for the weather conditions in past years. The results will help you decide how hot, cold, wet, or windy it might be!

Date:

Astronomy

Sep. 13, 2013 Rise Set
Actual Time 6:38 AM PDT 7:10 PM PDT
Civil Twilight 6:11 AM PDT 7:37 PM PDT
Nautical Twilight 5:39 AM PDT 8:09 PM PDT
Astronomical Twilight 5:07 AM PDT 8:41 PM PDT
Moon 3:03 PM PDT (9/13) 12:14 AM PDT (9/13)
Length of Visible Light 13h 25m
Length of Day
12h 31m
Waxing Gibbous, 62% of the Moon is Illuminated
Sep 13
Waxing Gibbous
Sep 19
Full
Sep 26
Last Quarter
Oct 4
New
Oct 11
First Quarter

Hourly Weather History & Observations

Time (PDT) Temp. Dew Point Humidity Pressure Visibility Wind Dir Wind Speed Gust Speed Precip Events Conditions
12:55 AM 64.0 °F 52.0 °F 65% 29.92 in 10.0 mi SE 3.5 mph - N/A   Partly Cloudy
1:55 AM 66.0 °F 50.0 °F 56% 29.91 in 10.0 mi West 9.2 mph - N/A   Clear
2:55 AM 61.0 °F 50.0 °F 67% 29.92 in 10.0 mi Calm Calm - N/A   Clear
3:55 AM 59.0 °F 48.9 °F 69% 29.92 in 10.0 mi Calm Calm - N/A   Partly Cloudy
4:55 AM 61.0 °F 48.9 °F 64% 29.91 in 10.0 mi Calm Calm - N/A   Clear
5:55 AM 57.0 °F 48.0 °F 72% 29.92 in 10.0 mi Calm Calm - N/A   Partly Cloudy
6:55 AM 59.0 °F 48.9 °F 69% 29.94 in 10.0 mi WNW 3.5 mph - N/A   Scattered Clouds
7:55 AM 60.1 °F 48.9 °F 67% 29.96 in 10.0 mi Calm Calm - N/A   Scattered Clouds
8:55 AM 66.0 °F 50.0 °F 56% 29.94 in 10.0 mi Calm Calm - N/A   Scattered Clouds
9:55 AM 69.1 °F 48.9 °F 49% 29.92 in 10.0 mi South 3.5 mph - N/A   Scattered Clouds
10:55 AM 75.9 °F 48.0 °F 37% 29.89 in 10.0 mi NE 3.5 mph - N/A   Scattered Clouds
11:55 AM 80.1 °F 46.9 °F 31% 29.86 in 10.0 mi West 3.5 mph - N/A   Mostly Cloudy
12:55 PM 82.0 °F 46.0 °F 28% 29.84 in 10.0 mi Calm Calm - N/A   Mostly Cloudy
1:55 PM 82.9 °F 45.0 °F 26% 29.81 in 10.0 mi ESE 3.5 mph - N/A   Mostly Cloudy
2:55 PM 87.1 °F 42.1 °F 21% 29.79 in 10.0 mi East 4.6 mph - N/A   Mostly Cloudy
3:55 PM 84.0 °F 44.1 °F 25% 29.78 in 10.0 mi NNE 5.8 mph - N/A   Mostly Cloudy
4:55 PM 84.0 °F 44.1 °F 25% 29.77 in 10.0 mi North 4.6 mph - N/A   Mostly Cloudy
5:13 PM 77.0 °F 51.8 °F 41% 29.94 in 10.0 mi NNE 8.1 mph 27.6 mph 0.00 in Rain , Thunderstorm Light Thunderstorms and Rain
5:55 PM 77.0 °F 46.9 °F 34% 29.83 in 10.0 mi WNW 11.5 mph 23.0 mph 0.00 in Thunderstorm Thunderstorm
6:13 PM 75.2 °F 48.2 °F 38% 29.96 in 10.0 mi WNW 11.5 mph 24.2 mph N/A   Mostly Cloudy
6:55 PM 75.0 °F 46.9 °F 37% 29.82 in 10.0 mi SSE 6.9 mph - N/A   Mostly Cloudy
7:55 PM 73.9 °F 48.0 °F 40% 29.83 in 10.0 mi West 6.9 mph - N/A   Mostly Cloudy
8:55 PM 71.1 °F 50.0 °F 47% 29.83 in 10.0 mi Calm Calm - N/A   Mostly Cloudy
9:55 PM 69.1 °F 50.0 °F 51% 29.83 in 10.0 mi South 4.6 mph - N/A   Scattered Clouds
10:55 PM 69.1 °F 48.0 °F 47% 29.82 in 10.0 mi WNW 3.5 mph - N/A   Scattered Clouds
11:55 PM 64.9 °F 50.0 °F 58% 29.81 in 10.0 mi Calm Calm - N/A   Partly Cloudy